Terminal Aerodrome Forecast
Issued by NWS

Home | Current Version | Previous Version | Text Only | Print | Product List | Glossary On
Versions: 1 2 3 4 5 6 7 8 9 10 11 12 13 14 15 16 17 18
176
FTPA31 PHFO 271213 AAA
TAFHNY
TAF AMD
PHNY 271213Z 2712/2812 VRB05KT P6SM SCT025
      TEMPO 2712/2715 BKN020
     FM272000 VRB06KT P6SM SCT025
     FM280000 04012G22KT P6SM BKN025
     FM280500 05009KT P6SM SCT025=

USA.gov is the U.S. government's official web portal to all federal, state and local government web resources and services.